Zurück zum Katalog

STARLINK-32124

AktivKommunikationVLEO
NORAD 60298·PAYLOAD·🇺🇸 United States

Gestartet Jul 28, 2024 von Cape Canaveral Space Force Station

Loading…

Nächste Überflüge (nächste 24 Stunden)

TLE

AktuellSource: CelesTrak SupGP

Epoche: Sep 14, 2026, 12:56 UTC

1 60298C 24132W   26257.53937500  .00003341  00000+0  10744-3 0  2577
2 60298  53.1568 253.9349 0001172  85.2059 237.6604 15.31695751    12

Verfolge STARLINK-32124 in Echtzeit mit AllMySat

Download on the App Store